DL1ONI-13 Weather Reports


time (UTC)temp
C
wind
direction
speed
KPH
gust
KPH
rain 1hr
cm
rain 24hr
cm
rain mn
cm
humidity
%
barometer
mb
20260505205024 14 223 1.6 3.2 0.00 0.15 0.15 65 1014.4
20260505204024 14 246 3.2 6.4 0.00 0.15 0.15 65 1014.4
20260505203024 15 266 3.2 6.4 0.00 0.15 0.15 64 1013.3
20260505202023 15 283 3.2 6.4 0.00 0.15 0.15 65 1013.3
20260505201024 15 309 3.2 4.8 0.00 0.15 0.15 64 1012.3
20260505200024 15 306 1.6 4.8 0.00 0.15 0.15 64 1012.3
20260505195025 15 296 1.6 6.4 0.00 0.15 0.15 63 1012.2
20260505194045 15 330 0.0 3.2 0.00 0.15 0.15 62 1012.2
20260505193025 15 272 1.6 1.6 0.00 0.15 0.15 61 1011.7
20260505192025 16 261 3.2 4.8 0.00 0.15 0.15 61 1011.7
20260505191016 16 275 1.6 8.0 0.00 0.15 0.15 61 1011.4
20260505190016 16 333 1.6 1.6 0.00 0.15 0.15 61 1011.4
20260505185017 -17 0.0 0.0 0.00 0.15 0.15
20260505184017 16 0.0 0.0 0.00 0.15 0.15 60 1011.4
20260505183017 16 248 4.8 6.4 0.00 0.15 0.15 60 1011.0
20260505182037 17 264 4.8 6.4 0.00 0.15 0.15 60 1011.1
20260505181017 17 293 4.8 6.4 0.00 0.15 0.15 59 1011.1
20260505180017 17 265 6.4 6.4 0.00 0.15 0.15 59 1011.2
20260505175038 17 282 6.4 9.7 0.00 0.15 0.15 59 1011.0
20260505174020 17 253 4.8 6.4 0.00 0.15 0.15 59 1011.0
20260505173020 17 278 4.8 4.8 0.00 0.15 0.15 59 1011.0
20260505172019 17 247 8.0 9.7 0.00 0.15 0.15 58 1011.0
20260505171040 17 256 8.0 9.7 0.00 0.15 0.15 58 1011.1
20260505170040 17 256 6.4 14.5 0.00 0.15 0.15 57 1010.8
20260505165020 17 248 6.4 11.3 0.00 0.15 0.15 57 1010.8
20260505164020 18 279 8.0 9.7 0.00 0.15 0.15 56 1010.9
20260505163019 18 279 8.0 12.9 0.00 0.15 0.15 55 1010.8
20260505162040 18 293 8.0 8.0 0.00 0.15 0.15 55 1010.8
20260505161021 18 293 9.7 11.3 0.00 0.15 0.15 55 1010.8
20260505153020 18 270 6.4 8.0 0.15 0.15 0.15 58 1010.5
20260505152020 18 296 8.0 11.3 0.15 0.15 0.15 60 1010.5
20260505151040 19 307 4.8 14.5 0.15 0.15 0.15 58 1011.0
20260505125020 27 135 4.8 6.4 0.00 0.00 0.00 34 1012.2
20260505124040 26 174 3.2 12.9 0.00 0.00 0.00 35 1012.2
20260505123021 26 105 1.6 6.4 0.00 0.00 0.00 34 1012.4
20260505122042 26 81 3.2 3.2 0.00 0.00 0.00 34 1012.4
20260505121023 26 62 1.6 4.8 0.00 0.00 0.00 35 1012.6
20260505120043 26 206 3.2 6.4 0.00 0.00 0.00 35 1012.6
20260505115024 25 131 1.6 8.0 0.00 0.00 0.00 37 1012.8
20260505114025 25 44 3.2 3.2 0.00 0.00 0.00 36 1012.7
20260505113025 24 342 3.2 8.0 0.00 0.00 0.00 37 1013.0
20260505112025 23 57 1.6 3.2 0.00 0.00 0.00 36 1013.0
20260505111016 23 32 3.2 6.4 0.00 0.00 0.00 36 1013.1
20260505102016 22 63 3.2 3.2 0.00 0.00 0.00 43 1013.5
20260505101017 22 21 1.6 6.4 0.00 0.00 0.00 44 1013.7
20260505100018 22 333 3.2 4.8 0.00 0.00 0.00 45 1013.8
20260505095018 22 234 3.2 9.7 0.00 0.00 0.00 46 1013.8
20260505094018 22 175 1.6 3.2 0.00 0.00 0.00 47 1013.7
20260505093019 21 218 1.6 8.0 0.00 0.00 0.00 47 1014.2
20260505092019 21 98 1.6 3.2 0.00 0.00 0.00 47 1014.2
20260505091039 21 160 1.6 3.2 0.00 0.00 0.00 48 1014.6
20260505090040 21 212 3.2 3.2 0.00 0.00 0.00 48 1014.6
20260505085020 21 176 3.2 6.4 0.00 0.00 0.00 49 1014.4
20260505084020 21 243 3.2 6.4 0.00 0.00 0.00 51 1014.4
20260505083041 20 170 1.6 8.0 0.00 0.00 0.00 52 1014.7
20260505082021 20 155 3.2 4.8 0.00 0.00 0.00 53 1014.7
20260505081042 19 229 1.6 4.8 0.00 0.00 0.00 53 1014.6
20260505080042 18 55 1.6 3.2 0.00 0.00 0.00 53 1014.6
20260505075023 18 80 1.6 4.8 0.00 0.00 0.00 53 1014.8
20260505074024 18 5 1.6 3.2 0.00 0.00 0.00 53 1014.8
20260505073025 18 17 0.0 4.8 0.00 0.00 0.00 54 1014.2
20260505072023 18 86 0.0 1.6 0.00 0.00 0.00 55 1014.2
20260505071023 17 3 1.6 4.8 0.00 0.00 0.00 55 1013.4
20260505070023 17 240 1.6 3.2 0.00 0.00 0.00 57 1013.5
20260505065023 17 258 1.6 4.8 0.00 0.00 0.00 57 1013.7
20260505064024 17 279 1.6 4.8 0.00 0.00 0.00 57 1013.7
20260505063023 17 264 3.2 4.8 0.00 0.00 0.00 58 1014.2
20260505062024 17 278 1.6 4.8 0.00 0.00 0.00 59 1014.2
20260505061024 17 260 1.6 3.2 0.00 0.00 0.00 60 1013.9
20260505060024 17 303 3.2 3.2 0.00 0.00 0.00 60 1014.0
20260505055025 17 246 0.0 1.6 0.00 0.00 0.00 61 1013.9
20260505054025 17 315 0.0 0.0 0.00 0.00 0.00 59 1014.0
20260505053025 18 50 0.0 3.2 0.00 0.00 0.00 59 1014.2
20260505052024 18 0.0 0.0 0.00 0.00 0.00 59 1014.2
20260505051025 20 0.0 0.0 0.00 0.00 0.00 61 1014.0
20260505041025 11 0.0 0.0 0.00 0.00 0.00 72 1013.6
20260505040026 11 0.0 0.0 0.00 0.00 0.00 72 1013.6
20260505035016 11 0.0 0.0 0.00 0.00 0.00 72 1013.8
20260505034025 12 156 0.0 0.0 0.00 0.00 0.00 73 1013.8
20260505033024 12 180 0.0 0.0 0.00 0.00 0.00 73 1014.8
20260505032043 12 225 0.0 3.2 0.00 0.00 0.00 72 1014.8
20260505031022 12 234 0.0 3.2 0.00 0.00 0.00 72 1014.8
20260505030042 12 262 0.0 0.0 0.00 0.00 0.00 71 1014.8
20260505025022 12 168 0.0 3.2 0.00 0.00 0.00 70 1014.9
20260505024043 12 0.0 0.0 0.00 0.00 0.00 70 1014.9
20260505023024 12 0.0 0.0 0.00 0.00 0.00 69 1015.1
20260505022045 13 0.0 0.0 0.00 0.00 0.00 69 1015.1
20260505021025 13 0.0 0.0 0.00 0.00 0.00 68 1015.2
20260505020025 13 0.0 0.0 0.00 0.00 0.00 67 1015.3
20260505015024 13 0.0 0.0 0.00 0.00 0.00 66 1015.0
20260505014026 14 135 0.0 0.0 0.00 0.00 0.00 65 1015.0
20260505013025 14 180 0.0 3.2 0.00 0.00 0.00 65 1015.4
20260505012025 15 191 1.6 1.6 0.00 0.00 0.00 65 1015.5
20260505011024 15 239 1.6 3.2 0.00 0.00 0.00 65 1015.7
20260505010025 15 288 1.6 1.6 0.00 0.00 0.00 65 1015.7
20260505005024 15 225 0.0 3.2 0.00 0.00 0.00 64 1015.7
20260505004024 15 0.0 0.0 0.00 0.00 0.00 63 1015.7
20260505003024 15 315 0.0 0.0 0.00 0.00 0.00 63 1015.9
20260505002025 16 0.0 0.0 0.00 0.00 0.00 63 1015.9
20260505001024 16 315 0.0 0.0 0.00 0.00 0.00 62 1015.9
20260505000024 16 68 1.6 1.6 0.00 0.00 0.00 62 1015.9
20260504235024 16 308 1.6 3.2 0.00 0.00 0.00 60 1016.3
20260504234144 16 298 1.6 4.8 0.00 0.00 0.00 61 1016.3
20260504233044 16 5 1.6 3.2 0.00 0.00 0.00 61 1016.9
20260504232024 16 303 1.6 3.2 0.00 0.00 0.00 61 1016.9
20260504231025 16 310 3.2 3.2 0.00 0.00 0.00 61 1017.2
20260504230046 16 332 0.0 3.2 0.00 0.00 0.00 60 1017.1
20260504225025 16 72 0.0 0.0 0.00 0.00 0.00 61 1017.0
20260504224024 16 275 1.6 1.6 0.00 0.00 0.00 60 1017.0
20260504223024 17 318 1.6 4.8 0.00 0.00 0.00 59 1017.7
20260504222025 17 330 1.6 3.2 0.00 0.00 0.00 59 1017.7
20260504221025 17 269 1.6 6.4 0.00 0.00 0.00 57 1017.9
20260504220025 17 257 1.6 1.6 0.00 0.00 0.00 57 1017.9
20260504215016 17 274 0.0 1.6 0.00 0.00 0.00 56 1018.3
20260504214017 17 213 1.6 3.2 0.00 0.00 0.00 56 1018.3
20260504213037 18 235 4.8 6.4 0.00 0.00 0.00 55 1018.3
20260504212018 18 210 8.0 9.7 0.00 0.00 0.00 49 1018.3
20260504211017 19 199 6.4 17.7 0.00 0.00 0.00 46 1017.8
20260504210017 20 225 4.8 12.9 0.00 0.00 0.00 42 1017.9